Time,TemperatureF,DewpointF,PressureIn,WindDirection,WindDirectionDegrees,WindSpeedMPH,WindSpeedGustMPH,Humidity,HourlyPrecipIn,Conditions,Clouds,dailyrainin,SolarRadiationWatts/m^2,SoftwareType,DateUTC
2013-03-17 00:01:00,38.5,31.6,30.04,SSE,159,2.0,5.0,76,0.00,,,0.00,0,LWC V2.00 B727,2013-03-17 06:01:00,
2013-03-17 00:06:00,38.5,31.6,30.05,SSE,156,1.0,3.0,76,0.00,,,0.00,0,LWC V2.00 B727,2013-03-17 06:06:00,
2013-03-17 00:11:00,38.4,31.8,30.04,SSE,150,2.0,3.0,77,0.00,,,0.00,0,LWC V2.00 B727,2013-03-17 06:11:00,
2013-03-17 00:16:00,38.4,31.8,30.04,SSE,151,0.0,2.0,77,0.00,,,0.00,0,LWC V2.00 B727,2013-03-17 06:16:00,
2013-03-17 00:21:00,38.3,31.7,30.04,SSE,151,0.0,1.0,77,0.00,,,0.00,0,LWC V2.00 B727,2013-03-17 06:21:00,
2013-03-17 00:26:00,38.2,31.6,30.05,SSE,150,0.0,0.0,77,0.00,,,0.00,0,LWC V2.00 B727,2013-03-17 06:26:00,
2013-03-17 00:31:00,38.2,32.0,30.06,SSE,151,0.0,1.0,78,0.00,,,0.00,0,LWC V2.00 B727,2013-03-17 06:31:00,
2013-03-17 00:36:00,38.2,32.0,30.05,SSE,151,0.0,1.0,78,0.00,,,0.00,0,LWC V2.00 B727,2013-03-17 06:36:00,
2013-03-17 00:41:00,38.2,32.0,30.04,SSE,150,0.0,1.0,78,0.00,,,0.00,0,LWC V2.00 B727,2013-03-17 06:41:00,
2013-03-17 00:46:00,38.1,32.2,30.04,SSE,150,0.0,1.0,79,0.00,,,0.00,0,LWC V2.00 B727,2013-03-17 06:46:00,
2013-03-17 00:51:00,38.0,32.1,30.04,SSE,150,1.0,1.0,79,0.00,,,0.00,0,LWC V2.00 B727,2013-03-17 06:51:00,
2013-03-17 00:56:00,38.0,32.1,30.04,SSE,150,2.0,2.0,79,0.00,,,0.00,0,LWC V2.00 B727,2013-03-17 06:56:00,
2013-03-17 01:01:00,37.9,32.3,30.04,SSE,150,0.0,1.0,80,0.00,,,0.00,0,LWC V2.00 B727,2013-03-17 07:01:00,
2013-03-17 01:06:00,37.9,32.0,30.03,SSE,157,0.0,0.0,79,0.00,,,0.00,0,LWC V2.00 B727,2013-03-17 07:06:00,
2013-03-17 01:11:00,37.8,31.9,30.03,SSE,157,0.0,2.0,79,0.00,,,0.00,0,LWC V2.00 B727,2013-03-17 07:11:00,
2013-03-17 01:16:00,37.8,31.9,30.04,SSE,157,0.0,0.0,79,0.00,,,0.00,0,LWC V2.00 B727,2013-03-17 07:16:00,
2013-03-17 01:21:00,37.7,31.8,30.04,SSE,157,0.0,1.0,79,0.00,,,0.00,0,LWC V2.00 B727,2013-03-17 07:21:00,
2013-03-17 01:26:00,37.5,31.6,30.03,SSE,157,0.0,1.0,79,0.00,,,0.00,0,LWC V2.00 B727,2013-03-17 07:26:00,
2013-03-17 01:31:00,37.4,31.5,30.04,SSE,157,0.0,0.0,79,0.00,,,0.00,0,LWC V2.00 B727,2013-03-17 07:31:00,
2013-03-17 01:36:00,37.3,31.4,30.04,SSE,157,0.0,0.0,79,0.00,,,0.00,0,LWC V2.00 B727,2013-03-17 07:36:00,
2013-03-17 01:41:00,37.2,31.0,30.04,SSE,157,0.0,1.0,78,0.00,,,0.00,0,LWC V2.00 B727,2013-03-17 07:41:00,
2013-03-17 01:46:00,37.1,30.6,30.04,SSE,157,0.0,1.0,77,0.00,,,0.00,0,LWC V2.00 B727,2013-03-17 07:46:00,
2013-03-17 01:51:00,37.0,30.5,30.04,SSE,157,0.0,0.0,77,0.00,,,0.00,0,LWC V2.00 B727,2013-03-17 07:51:00,
2013-03-17 01:56:00,37.0,30.2,30.04,SSW,202,2.0,5.0,76,0.00,,,0.00,0,LWC V2.00 B727,2013-03-17 07:56:00,
2013-03-17 02:01:00,37.1,29.9,30.04,SSW,202,2.0,2.0,75,0.00,,,0.00,0,LWC V2.00 B727,2013-03-17 08:01:00,
2013-03-17 02:06:00,37.2,29.7,30.04,SSW,202,0.0,2.0,74,0.00,,,0.00,0,LWC V2.00 B727,2013-03-17 08:06:00,
2013-03-17 02:11:00,37.2,30.0,30.04,SSW,202,1.0,1.0,75,0.00,,,0.00,0,LWC V2.00 B727,2013-03-17 08:11:00,
2013-03-17 02:16:00,37.0,30.2,30.04,SSW,202,0.0,0.0,76,0.00,,,0.00,0,LWC V2.00 B727,2013-03-17 08:16:00,
2013-03-17 02:21:00,36.9,30.1,30.04,SSW,202,0.0,0.0,76,0.00,,,0.00,0,LWC V2.00 B727,2013-03-17 08:21:00,
2013-03-17 02:26:00,36.6,30.1,30.03,SSW,202,0.0,0.0,77,0.00,,,0.00,0,LWC V2.00 B727,2013-03-17 08:26:00,
2013-03-17 02:31:00,36.2,29.7,30.03,SSW,202,0.0,0.0,77,0.00,,,0.00,0,LWC V2.00 B727,2013-03-17 08:31:00,
2013-03-17 02:36:00,35.7,29.5,30.03,SSW,202,2.0,2.0,78,0.00,,,0.00,0,LWC V2.00 B727,2013-03-17 08:36:00,
2013-03-17 02:41:00,35.3,29.5,30.03,SSW,202,0.0,1.0,79,0.00,,,0.00,0,LWC V2.00 B727,2013-03-17 08:41:00,
2013-03-17 02:46:00,35.1,29.6,30.03,SSW,202,0.0,0.0,80,0.00,,,0.00,0,LWC V2.00 B727,2013-03-17 08:46:00,
2013-03-17 02:51:00,34.8,29.3,30.03,SSW,202,0.0,0.0,80,0.00,,,0.00,0,LWC V2.00 B727,2013-03-17 08:51:00,
2013-03-17 02:56:00,34.6,28.8,30.03,SSW,202,0.0,0.0,79,0.00,,,0.00,0,LWC V2.00 B727,2013-03-17 08:56:00,
2013-03-17 03:01:00,34.4,28.6,30.03,SSW,202,0.0,0.0,79,0.00,,,0.00,0,LWC V2.00 B727,2013-03-17 09:01:00,
2013-03-17 03:06:00,34.2,28.1,30.03,SSW,202,0.0,0.0,78,0.00,,,0.00,0,LWC V2.00 B727,2013-03-17 09:06:00,
2013-03-17 03:11:00,33.8,27.7,30.02,SSW,202,0.0,0.0,78,0.00,,,0.00,0,LWC V2.00 B727,2013-03-17 09:11:00,
2013-03-17 03:16:00,33.5,27.4,30.02,SSW,202,0.0,0.0,78,0.00,,,0.00,0,LWC V2.00 B727,2013-03-17 09:16:00,
2013-03-17 03:21:00,33.2,27.1,30.02,SSW,202,0.0,0.0,78,0.00,,,0.00,0,LWC V2.00 B727,2013-03-17 09:21:00,
2013-03-17 03:26:00,32.8,26.7,30.02,SSW,202,0.0,0.0,78,0.00,,,0.00,0,LWC V2.00 B727,2013-03-17 09:26:00,
2013-03-17 03:31:00,32.5,26.4,30.02,SSW,202,0.0,0.0,78,0.00,,,0.00,0,LWC V2.00 B727,2013-03-17 09:31:00,
2013-03-17 03:36:00,32.3,26.2,30.02,SSW,202,0.0,0.0,78,0.00,,,0.00,0,LWC V2.00 B727,2013-03-17 09:36:00,
2013-03-17 03:41:00,32.0,25.9,30.01,SSW,202,0.0,0.0,78,0.00,,,0.00,0,LWC V2.00 B727,2013-03-17 09:41:00,
2013-03-17 03:46:00,31.6,25.5,30.01,SSW,202,0.0,0.0,78,0.00,,,0.00,0,LWC V2.00 B727,2013-03-17 09:46:00,
2013-03-17 03:51:00,31.2,25.2,30.01,SSW,202,0.0,0.0,78,0.00,,,0.00,0,LWC V2.00 B727,2013-03-17 09:51:00,
2013-03-17 03:56:00,30.9,24.9,30.01,SSW,202,0.0,0.0,78,0.00,,,0.00,0,LWC V2.00 B727,2013-03-17 09:56:00,
2013-03-17 04:01:00,30.6,24.6,30.01,SSW,202,0.0,0.0,78,0.00,,,0.00,0,LWC V2.00 B727,2013-03-17 10:01:00,
2013-03-17 04:06:00,30.3,24.3,30.01,SSW,202,0.0,0.0,78,0.00,,,0.00,0,LWC V2.00 B727,2013-03-17 10:06:00,
2013-03-17 04:11:00,29.9,23.9,30.02,SSW,202,0.0,0.0,78,0.00,,,0.00,0,LWC V2.00 B727,2013-03-17 10:11:00,
2013-03-17 04:16:00,29.6,23.6,30.02,SSW,202,0.0,0.0,78,0.00,,,0.00,0,LWC V2.00 B727,2013-03-17 10:16:00,
2013-03-17 04:21:00,29.3,23.6,30.02,SSW,202,0.0,0.0,79,0.00,,,0.00,0,LWC V2.00 B727,2013-03-17 10:21:00,
2013-03-17 04:26:00,29.0,23.6,30.02,SSW,202,0.0,0.0,80,0.00,,,0.00,0,LWC V2.00 B727,2013-03-17 10:26:00,
2013-03-17 04:31:00,28.8,23.4,30.02,SSW,202,0.0,0.0,80,0.00,,,0.00,0,LWC V2.00 B727,2013-03-17 10:31:00,
2013-03-17 04:36:00,28.6,23.2,30.02,SSW,202,0.0,0.0,80,0.00,,,0.00,0,LWC V2.00 B727,2013-03-17 10:36:00,
2013-03-17 04:41:00,28.4,23.3,30.02,SSW,202,0.0,0.0,81,0.00,,,0.00,0,LWC V2.00 B727,2013-03-17 10:41:00,
2013-03-17 04:46:00,28.2,23.1,30.03,SSW,202,0.0,0.0,81,0.00,,,0.00,0,LWC V2.00 B727,2013-03-17 10:46:00,
2013-03-17 04:51:00,28.0,22.9,30.03,SSW,202,0.0,0.0,81,0.00,,,0.00,0,LWC V2.00 B727,2013-03-17 10:51:00,
2013-03-17 04:56:00,27.9,23.1,30.03,SSW,202,0.0,0.0,82,0.00,,,0.00,0,LWC V2.00 B727,2013-03-17 10:56:00,
2013-03-17 05:01:00,27.9,23.4,30.03,SSW,202,0.0,0.0,83,0.00,,,0.00,0,LWC V2.00 B727,2013-03-17 11:01:00,
2013-03-17 05:06:00,27.9,23.7,30.03,SSW,202,0.0,0.0,84,0.00,,,0.00,0,LWC V2.00 B727,2013-03-17 11:06:00,
2013-03-17 05:11:00,27.9,23.7,30.03,SSW,202,0.0,0.0,84,0.00,,,0.00,0,LWC V2.00 B727,2013-03-17 11:11:00,
2013-03-17 05:16:00,27.9,23.7,30.03,SSW,202,0.0,0.0,84,0.00,,,0.00,0,LWC V2.00 B727,2013-03-17 11:16:00,
2013-03-17 05:21:00,27.9,23.7,30.03,SSW,202,0.0,0.0,84,0.00,,,0.00,0,LWC V2.00 B727,2013-03-17 11:21:00,
2013-03-17 05:26:00,27.8,23.6,30.03,SSW,202,0.0,0.0,84,0.00,,,0.00,0,LWC V2.00 B727,2013-03-17 11:26:00,
2013-03-17 05:31:00,27.7,23.5,30.03,SSW,194,0.0,1.0,84,0.00,,,0.00,0,LWC V2.00 B727,2013-03-17 11:31:00,
2013-03-17 05:36:00,27.9,24.0,30.03,SSW,194,0.0,0.0,85,0.00,,,0.00,0,LWC V2.00 B727,2013-03-17 11:36:00,
2013-03-17 05:41:00,27.8,23.9,30.03,SSW,194,0.0,0.0,85,0.00,,,0.00,0,LWC V2.00 B727,2013-03-17 11:41:00,
2013-03-17 05:46:00,27.8,23.9,30.03,SSW,194,0.0,0.0,85,0.00,,,0.00,0,LWC V2.00 B727,2013-03-17 11:46:00,
2013-03-17 05:51:00,28.0,24.1,30.03,SSW,194,0.0,0.0,85,0.00,,,0.00,0,LWC V2.00 B727,2013-03-17 11:51:00,
2013-03-17 05:56:00,28.0,24.1,30.03,SSW,194,0.0,0.0,85,0.00,,,0.00,0,LWC V2.00 B727,2013-03-17 11:56:00,
2013-03-17 06:01:00,28.3,24.7,30.03,SSW,194,0.0,0.0,86,0.00,,,0.00,0,LWC V2.00 B727,2013-03-17 12:01:00,
2013-03-17 06:06:00,28.5,24.9,30.03,SSW,194,0.0,1.0,86,0.00,,,0.00,0,LWC V2.00 B727,2013-03-17 12:06:00,
2013-03-17 06:11:00,28.9,25.5,30.03,SSW,192,0.0,1.0,87,0.00,,,0.00,0,LWC V2.00 B727,2013-03-17 12:11:00,
2013-03-17 06:16:00,29.1,25.4,30.03,South,186,1.0,2.0,86,0.00,,,0.00,0,LWC V2.00 B727,2013-03-17 12:16:00,
2013-03-17 06:21:00,29.5,25.8,30.03,South,182,0.0,1.0,86,0.00,,,0.00,0,LWC V2.00 B727,2013-03-17 12:21:00,
2013-03-17 06:26:00,29.6,25.9,30.02,South,182,0.0,1.0,86,0.00,,,0.00,0,LWC V2.00 B727,2013-03-17 12:26:00,
2013-03-17 06:31:00,29.6,25.9,30.03,South,182,0.0,1.0,86,0.00,,,0.00,0,LWC V2.00 B727,2013-03-17 12:31:00,
2013-03-17 06:36:00,29.7,25.8,30.03,South,182,0.0,1.0,85,0.00,,,0.00,0,LWC V2.00 B727,2013-03-17 12:36:00,
2013-03-17 06:41:00,29.7,25.8,30.03,South,182,0.0,0.0,85,0.00,,,0.00,0,LWC V2.00 B727,2013-03-17 12:41:00,
2013-03-17 06:46:00,29.5,25.3,30.03,South,182,0.0,0.0,84,0.00,,,0.00,0,LWC V2.00 B727,2013-03-17 12:46:00,
2013-03-17 06:51:00,29.3,25.1,30.03,South,182,0.0,0.0,84,0.00,,,0.00,0,LWC V2.00 B727,2013-03-17 12:51:00,
2013-03-17 06:56:00,29.3,25.1,30.03,South,181,0.0,2.0,84,0.00,,,0.00,0,LWC V2.00 B727,2013-03-17 12:56:00,
2013-03-17 07:01:00,29.3,25.4,30.03,South,182,3.0,3.0,85,0.00,,,0.00,0,LWC V2.00 B727,2013-03-17 13:01:00,
2013-03-17 07:06:00,29.4,25.5,30.03,South,178,0.0,1.0,85,0.00,,,0.00,0,LWC V2.00 B727,2013-03-17 13:06:00,
2013-03-17 07:11:00,29.5,25.6,30.03,South,178,0.0,2.0,85,0.00,,,0.00,0,LWC V2.00 B727,2013-03-17 13:11:00,
2013-03-17 07:16:00,29.6,25.7,30.03,South,178,1.0,2.0,85,0.00,,,0.00,11,LWC V2.00 B727,2013-03-17 13:16:00,
2013-03-17 07:21:00,29.7,25.8,30.03,South,178,1.0,1.0,85,0.00,,,0.00,21,LWC V2.00 B727,2013-03-17 13:21:00,
2013-03-17 07:26:00,29.9,26.0,30.03,South,178,0.0,2.0,85,0.00,,,0.00,37,LWC V2.00 B727,2013-03-17 13:26:00,
2013-03-17 07:31:00,30.0,26.0,30.02,South,178,0.0,2.0,85,0.00,,,0.00,28,LWC V2.00 B727,2013-03-17 13:31:00,
2013-03-17 07:36:00,30.3,26.3,30.02,South,178,1.0,2.0,85,0.00,,,0.00,30,LWC V2.00 B727,2013-03-17 13:36:00,
2013-03-17 07:41:00,30.5,26.5,30.02,South,178,0.0,3.0,85,0.00,,,0.00,47,LWC V2.00 B727,2013-03-17 13:41:00,
2013-03-17 07:46:00,30.7,26.7,30.02,South,178,1.0,3.0,85,0.00,,,0.00,62,LWC V2.00 B727,2013-03-17 13:46:00,
2013-03-17 07:51:00,31.1,27.1,30.02,South,178,0.0,2.0,85,0.00,,,0.00,69,LWC V2.00 B727,2013-03-17 13:51:00,
2013-03-17 07:56:00,31.4,27.1,30.02,South,178,1.0,1.0,84,0.00,,,0.00,67,LWC V2.00 B727,2013-03-17 13:56:00,
2013-03-17 08:01:00,31.7,27.4,30.02,South,178,0.0,2.0,84,0.00,,,0.00,178,LWC V2.00 B727,2013-03-17 14:01:00,
2013-03-17 08:06:00,32.2,28.2,30.02,South,178,1.0,3.0,85,0.00,,,0.00,207,LWC V2.00 B727,2013-03-17 14:06:00,
2013-03-17 08:11:00,32.9,28.6,30.02,South,178,0.0,3.0,84,0.00,,,0.00,171,LWC V2.00 B727,2013-03-17 14:11:00,
2013-03-17 08:16:00,33.5,28.9,30.02,South,178,0.0,1.0,83,0.00,,,0.00,223,LWC V2.00 B727,2013-03-17 14:16:00,
2013-03-17 08:21:00,34.0,29.4,30.02,South,178,0.0,0.0,83,0.00,,,0.00,63,LWC V2.00 B727,2013-03-17 14:21:00,
2013-03-17 08:27:00,34.4,29.8,30.01,South,178,0.0,1.0,83,0.00,,,0.00,46,LWC V2.00 B727,2013-03-17 14:27:00,
2013-03-17 08:31:00,34.6,29.4,30.01,South,178,0.0,1.0,81,0.00,,,0.00,107,LWC V2.00 B727,2013-03-17 14:31:00,
2013-03-17 08:36:00,35.2,30.0,30.02,South,178,0.0,2.0,81,0.00,,,0.00,295,LWC V2.00 B727,2013-03-17 14:36:00,
2013-03-17 08:41:00,35.8,30.2,30.01,South,178,0.0,0.0,80,0.00,,,0.00,93,LWC V2.00 B727,2013-03-17 14:41:00,
2013-03-17 08:46:00,36.3,30.7,30.01,South,178,0.0,0.0,80,0.00,,,0.00,330,LWC V2.00 B727,2013-03-17 14:46:00,
2013-03-17 08:51:00,36.8,30.9,30.01,South,182,3.0,3.0,79,0.00,,,0.00,367,LWC V2.00 B727,2013-03-17 14:51:00,
2013-03-17 08:56:00,37.7,30.5,30.01,South,182,1.0,2.0,75,0.00,,,0.00,439,LWC V2.00 B727,2013-03-17 14:56:00,
2013-03-17 09:01:00,38.8,31.2,30.01,SW,233,0.0,2.0,74,0.00,,,0.00,339,LWC V2.00 B727,2013-03-17 15:01:00,
2013-03-17 09:06:00,39.7,30.7,30.01,SW,233,1.0,2.0,70,0.00,,,0.00,141,LWC V2.00 B727,2013-03-17 15:06:00,
2013-03-17 09:11:00,40.5,30.8,30.01,SW,230,0.0,3.0,68,0.00,,,0.00,251,LWC V2.00 B727,2013-03-17 15:11:00,
2013-03-17 09:16:00,41.5,32.8,30.00,NNW,330,3.0,3.0,71,0.00,,,0.00,538,LWC V2.00 B727,2013-03-17 15:16:00,
2013-03-17 09:21:00,42.2,32.8,30.01,North,10,1.0,4.0,69,0.00,,,0.00,156,LWC V2.00 B727,2013-03-17 15:21:00,
2013-03-17 09:26:00,42.5,32.3,30.01,North,0,0.0,3.0,67,0.00,,,0.00,200,LWC V2.00 B727,2013-03-17 15:26:00,
2013-03-17 09:31:00,42.4,31.9,30.01,North,5,3.0,4.0,66,0.00,,,0.00,489,LWC V2.00 B727,2013-03-17 15:31:00,
2013-03-17 09:36:00,42.6,32.4,30.01,North,11,2.0,4.0,67,0.00,,,0.00,262,LWC V2.00 B727,2013-03-17 15:36:00,
2013-03-17 09:41:00,42.6,32.0,30.01,North,10,3.0,4.0,66,0.00,,,0.00,446,LWC V2.00 B727,2013-03-17 15:41:00,
2013-03-17 09:46:00,42.8,31.9,30.01,NNW,338,3.0,6.0,65,0.00,,,0.00,362,LWC V2.00 B727,2013-03-17 15:46:00,
2013-03-17 09:51:00,43.0,32.1,30.01,NNE,13,1.0,5.0,65,0.00,,,0.00,441,LWC V2.00 B727,2013-03-17 15:51:00,
2013-03-17 09:56:00,43.3,32.7,30.01,SSW,211,5.0,5.0,66,0.00,,,0.00,540,LWC V2.00 B727,2013-03-17 15:56:00,
2013-03-17 10:01:00,44.6,31.2,30.00,SW,230,2.0,9.0,59,0.00,,,0.00,682,LWC V2.00 B727,2013-03-17 16:01:00,
2013-03-17 10:07:00,46.1,30.4,30.00,WSW,238,5.0,8.0,54,0.00,,,0.00,552,LWC V2.00 B727,2013-03-17 16:07:00,
2013-03-17 10:12:00,46.8,29.6,30.00,SW,219,4.0,13.0,51,0.00,,,0.00,338,LWC V2.00 B727,2013-03-17 16:12:00,
2013-03-17 10:17:00,46.7,29.5,30.00,SSW,208,5.0,15.0,51,0.00,,,0.00,299,LWC V2.00 B727,2013-03-17 16:17:00,
2013-03-17 10:22:00,46.4,29.7,30.01,WSW,247,6.0,7.0,52,0.00,,,0.00,265,LWC V2.00 B727,2013-03-17 16:22:00,
2013-03-17 10:27:00,46.1,29.5,30.01,SW,230,2.0,9.0,52,0.00,,,0.00,322,LWC V2.00 B727,2013-03-17 16:27:00,
2013-03-17 10:32:00,46.3,30.6,30.01,SSW,209,3.0,9.0,54,0.00,,,0.00,582,LWC V2.00 B727,2013-03-17 16:32:00,
2013-03-17 10:37:00,47.0,30.8,30.00,WSW,250,6.0,14.0,53,0.00,,,0.00,315,LWC V2.00 B727,2013-03-17 16:37:00,
2013-03-17 10:41:00,47.3,30.6,30.01,WSW,249,0.0,12.0,52,0.00,,,0.00,671,LWC V2.00 B727,2013-03-17 16:41:00,
2013-03-17 10:46:00,48.1,31.3,30.01,NW,306,5.0,6.0,52,0.00,,,0.00,759,LWC V2.00 B727,2013-03-17 16:46:00,
2013-03-17 10:51:00,48.8,30.0,30.01,SSW,200,7.0,10.0,48,0.00,,,0.00,854,LWC V2.00 B727,2013-03-17 16:51:00,
2013-03-17 10:57:00,48.8,30.0,30.01,SW,233,7.0,13.0,48,0.00,,,0.00,837,LWC V2.00 B727,2013-03-17 16:57:00,
2013-03-17 11:02:00,48.6,29.8,30.00,WSW,243,7.0,13.0,48,0.00,,,0.00,628,LWC V2.00 B727,2013-03-17 17:02:00,
2013-03-17 11:07:00,48.5,29.7,30.00,North,355,7.0,9.0,48,0.00,,,0.00,703,LWC V2.00 B727,2013-03-17 17:07:00,
2013-03-17 11:12:00,49.0,30.2,30.00,WSW,251,6.0,10.0,48,0.00,,,0.00,466,LWC V2.00 B727,2013-03-17 17:12:00,
2013-03-17 11:17:00,48.8,28.4,30.00,SW,233,7.0,15.0,45,0.00,,,0.00,492,LWC V2.00 B727,2013-03-17 17:17:00,
2013-03-17 11:22:00,48.5,28.1,30.00,WSW,248,9.0,11.0,45,0.00,,,0.00,218,LWC V2.00 B727,2013-03-17 17:22:00,
2013-03-17 11:27:00,48.0,27.7,30.00,SW,221,5.0,8.0,45,0.00,,,0.00,186,LWC V2.00 B727,2013-03-17 17:27:00,
2013-03-17 11:32:00,47.4,28.2,30.00,NNW,331,7.0,7.0,47,0.00,,,0.00,207,LWC V2.00 B727,2013-03-17 17:32:00,
2013-03-17 11:37:00,46.5,28.4,30.01,North,355,10.0,10.0,49,0.00,,,0.00,206,LWC V2.00 B727,2013-03-17 17:37:00,
2013-03-17 11:42:00,45.9,28.8,30.01,SSW,213,8.0,12.0,51,0.00,,,0.00,211,LWC V2.00 B727,2013-03-17 17:42:00,
2013-03-17 11:47:00,45.2,28.6,30.01,NNW,333,14.0,14.0,52,0.00,,,0.00,178,LWC V2.00 B727,2013-03-17 17:47:00,
2013-03-17 11:52:00,44.7,30.0,30.01,NE,45,6.0,10.0,56,0.00,,,0.00,202,LWC V2.00 B727,2013-03-17 17:52:00,
2013-03-17 11:57:00,44.0,30.2,30.01,NW,313,10.0,11.0,58,0.00,,,0.00,244,LWC V2.00 B727,2013-03-17 17:57:00,
2013-03-17 12:02:00,43.4,30.0,30.01,NNE,22,7.0,14.0,59,0.00,,,0.00,250,LWC V2.00 B727,2013-03-17 18:02:00,
2013-03-17 12:07:00,42.9,30.0,30.00,NNW,338,9.0,13.0,60,0.00,,,0.00,211,LWC V2.00 B727,2013-03-17 18:07:00,
2013-03-17 12:12:00,42.6,30.5,30.01,WSW,246,2.0,9.0,62,0.00,,,0.00,248,LWC V2.00 B727,2013-03-17 18:12:00,
2013-03-17 12:17:00,42.6,30.1,30.01,NNW,336,1.0,8.0,61,0.00,,,0.00,352,LWC V2.00 B727,2013-03-17 18:17:00,
2013-03-17 12:22:00,42.8,30.7,30.01,SW,236,5.0,6.0,62,0.00,,,0.00,334,LWC V2.00 B727,2013-03-17 18:22:00,
2013-03-17 12:27:00,43.0,30.5,30.01,West,269,3.0,4.0,61,0.00,,,0.00,250,LWC V2.00 B727,2013-03-17 18:27:00,
2013-03-17 12:32:00,43.0,30.5,30.00,SW,231,2.0,11.0,61,0.00,,,0.00,192,LWC V2.00 B727,2013-03-17 18:32:00,
2013-03-17 12:36:00,42.9,30.4,30.00,SSW,203,5.0,7.0,61,0.00,,,0.00,179,LWC V2.00 B727,2013-03-17 18:36:00,
2013-03-17 12:41:00,42.9,30.8,30.00,North,0,5.0,9.0,62,0.00,,,0.00,248,LWC V2.00 B727,2013-03-17 18:41:00,
2013-03-17 12:46:00,42.9,30.8,30.00,SW,229,4.0,9.0,62,0.00,,,0.00,243,LWC V2.00 B727,2013-03-17 18:46:00,
2013-03-17 12:51:00,43.0,29.7,30.00,SW,215,12.0,12.0,59,0.00,,,0.00,160,LWC V2.00 B727,2013-03-17 18:51:00,
2013-03-17 12:56:00,43.0,28.8,29.99,SW,218,7.0,11.0,57,0.00,,,0.00,162,LWC V2.00 B727,2013-03-17 18:56:00,
2013-03-17 13:01:00,42.8,26.9,29.98,WSW,243,7.0,15.0,53,0.00,,,0.00,86,LWC V2.00 B727,2013-03-17 19:01:00,
2013-03-17 13:06:00,42.4,26.9,29.97,South,190,6.0,19.0,54,0.00,,,0.00,171,LWC V2.00 B727,2013-03-17 19:06:00,
2013-03-17 13:11:00,42.3,27.3,29.98,SSW,208,8.0,16.0,55,0.00,,,0.00,320,LWC V2.00 B727,2013-03-17 19:11:00,
2013-03-17 13:16:00,43.3,29.1,29.98,SSW,202,8.0,13.0,57,0.00,,,0.00,705,LWC V2.00 B727,2013-03-17 19:16:00,
2013-03-17 13:21:00,44.7,30.0,29.97,NNE,22,6.0,9.0,56,0.00,,,0.00,772,LWC V2.00 B727,2013-03-17 19:21:00,
2013-03-17 13:26:00,46.5,31.7,29.97,SW,235,6.0,15.0,56,0.00,,,0.00,677,LWC V2.00 B727,2013-03-17 19:26:00,
2013-03-17 13:31:00,46.8,31.9,29.97,SSW,204,6.0,11.0,56,0.00,,,0.00,1201,LWC V2.00 B727,2013-03-17 19:31:00,
2013-03-17 13:36:00,47.6,32.2,29.97,WSW,245,5.0,9.0,55,0.00,,,0.00,1039,LWC V2.00 B727,2013-03-17 19:36:00,
2013-03-17 13:41:00,48.2,32.8,29.96,WSW,245,2.0,14.0,55,0.00,,,0.00,1035,LWC V2.00 B727,2013-03-17 19:41:00,
2013-03-17 13:46:00,48.7,30.9,29.96,WSW,240,7.0,9.0,50,0.00,,,0.00,1018,LWC V2.00 B727,2013-03-17 19:46:00,
2013-03-17 13:51:00,49.5,31.6,29.96,SSW,207,3.0,7.0,50,0.00,,,0.00,1113,LWC V2.00 B727,2013-03-17 19:51:00,
2013-03-17 13:56:00,50.0,31.1,29.96,SW,229,6.0,10.0,48,0.00,,,0.00,364,LWC V2.00 B727,2013-03-17 19:56:00,
2013-03-17 14:01:00,49.9,30.5,29.96,NW,304,1.0,5.0,47,0.00,,,0.00,206,LWC V2.00 B727,2013-03-17 20:01:00,
2013-03-17 14:06:00,49.2,29.8,29.95,WSW,241,1.0,5.0,47,0.00,,,0.00,302,LWC V2.00 B727,2013-03-17 20:06:00,
2013-03-17 14:11:00,48.5,29.7,29.95,WSW,246,0.0,8.0,48,0.00,,,0.00,350,LWC V2.00 B727,2013-03-17 20:11:00,
2013-03-17 14:16:00,48.1,29.3,29.94,WSW,245,3.0,11.0,48,0.00,,,0.00,288,LWC V2.00 B727,2013-03-17 20:16:00,
2013-03-17 14:21:00,47.9,29.7,29.93,SW,221,1.0,6.0,49,0.00,,,0.00,260,LWC V2.00 B727,2013-03-17 20:21:00,
2013-03-17 14:26:00,49.9,30.0,29.92,WSW,257,3.0,9.0,46,0.00,,,0.00,1037,LWC V2.00 B727,2013-03-17 20:26:00,
2013-03-17 14:31:00,50.6,31.6,29.92,SSW,206,7.0,12.0,48,0.00,,,0.00,995,LWC V2.00 B727,2013-03-17 20:31:00,
2013-03-17 14:36:00,52.2,32.0,29.91,WSW,238,10.0,12.0,46,0.00,,,0.00,904,LWC V2.00 B727,2013-03-17 20:36:00,
2013-03-17 14:41:00,52.0,30.8,29.91,SSW,194,11.0,20.0,44,0.00,,,0.00,197,LWC V2.00 B727,2013-03-17 20:41:00,
2013-03-17 14:46:00,49.4,29.0,29.91,SW,219,9.0,17.0,45,0.00,,,0.00,155,LWC V2.00 B727,2013-03-17 20:46:00,
2013-03-17 14:51:00,49.3,30.4,29.91,SSW,196,10.0,13.0,48,0.00,,,0.00,960,LWC V2.00 B727,2013-03-17 20:51:00,
2013-03-17 14:56:00,50.3,30.3,29.91,SW,227,3.0,7.0,46,0.00,,,0.00,315,LWC V2.00 B727,2013-03-17 20:56:00,
2013-03-17 15:01:00,50.0,29.0,29.91,WSW,253,8.0,15.0,44,0.00,,,0.00,174,LWC V2.00 B727,2013-03-17 21:01:00,
2013-03-17 15:07:00,50.1,29.0,29.90,WSW,245,2.0,9.0,44,0.00,,,0.00,285,LWC V2.00 B727,2013-03-17 21:07:00,
2013-03-17 15:12:00,50.8,26.1,29.92,WSW,250,9.0,14.0,38,0.00,,,0.00,253,LWC V2.00 B727,2013-03-17 21:12:00,
2013-03-17 15:17:00,51.3,22.5,29.91,SSW,213,8.0,18.0,32,0.00,,,0.00,854,LWC V2.00 B727,2013-03-17 21:17:00,
2013-03-17 15:22:00,52.8,21.4,29.91,SW,226,15.0,20.0,29,0.00,,,0.00,886,LWC V2.00 B727,2013-03-17 21:22:00,
2013-03-17 15:27:00,52.4,20.3,29.91,WNW,285,14.0,20.0,28,0.00,,,0.00,223,LWC V2.00 B727,2013-03-17 21:27:00,
2013-03-17 15:32:00,52.7,20.5,29.91,SSW,203,14.0,17.0,28,0.00,,,0.00,870,LWC V2.00 B727,2013-03-17 21:32:00,
2013-03-17 15:37:00,53.3,19.3,29.91,NW,316,11.0,14.0,26,0.00,,,0.00,928,LWC V2.00 B727,2013-03-17 21:37:00,
2013-03-17 15:42:00,53.9,19.8,29.91,SSW,197,6.0,15.0,26,0.00,,,0.00,250,LWC V2.00 B727,2013-03-17 21:42:00,
2013-03-17 15:47:00,55.0,20.8,29.91,South,175,5.0,12.0,26,0.00,,,0.00,805,LWC V2.00 B727,2013-03-17 21:47:00,
2013-03-17 15:52:00,55.5,21.2,29.90,West,277,14.0,19.0,26,0.00,,,0.00,798,LWC V2.00 B727,2013-03-17 21:52:00,
2013-03-17 15:57:00,55.8,20.5,29.91,WSW,246,17.0,17.0,25,0.00,,,0.00,777,LWC V2.00 B727,2013-03-17 21:57:00,
2013-03-17 16:02:00,55.8,21.4,29.91,WSW,254,5.0,12.0,26,0.00,,,0.00,708,LWC V2.00 B727,2013-03-17 22:02:00,
2013-03-17 16:07:00,55.4,19.2,29.91,NW,319,11.0,17.0,24,0.00,,,0.00,673,LWC V2.00 B727,2013-03-17 22:07:00,
2013-03-17 16:12:00,55.0,17.9,29.91,WSW,244,9.0,20.0,23,0.00,,,0.00,650,LWC V2.00 B727,2013-03-17 22:12:00,
2013-03-17 16:17:00,54.7,18.6,29.91,SW,214,7.0,21.0,24,0.00,,,0.00,638,LWC V2.00 B727,2013-03-17 22:17:00,
2013-03-17 16:22:00,54.8,19.7,29.91,WSW,257,13.0,17.0,25,0.00,,,0.00,626,LWC V2.00 B727,2013-03-17 22:22:00,
2013-03-17 16:27:00,54.6,18.5,29.91,SW,229,14.0,23.0,24,0.00,,,0.00,613,LWC V2.00 B727,2013-03-17 22:27:00,
2013-03-17 16:32:00,54.6,18.5,29.91,WSW,238,11.0,16.0,24,0.00,,,0.00,598,LWC V2.00 B727,2013-03-17 22:32:00,
2013-03-17 16:37:00,54.4,17.4,29.91,ENE,68,12.0,22.0,23,0.00,,,0.00,575,LWC V2.00 B727,2013-03-17 22:37:00,
2013-03-17 16:42:00,54.4,18.4,29.91,SW,223,7.0,12.0,24,0.00,,,0.00,552,LWC V2.00 B727,2013-03-17 22:42:00,
2013-03-17 16:47:00,54.6,17.6,29.91,NNW,327,3.0,21.0,23,0.00,,,0.00,536,LWC V2.00 B727,2013-03-17 22:47:00,
2013-03-17 16:50:00,55.3,21.9,29.91,WSW,243,8.0,19.0,27,0.00,,,0.00,816,LWC V2.00 B727,2013-03-17 22:50:00,
2013-03-17 16:52:00,54.7,18.6,29.90,NW,307,1.0,14.0,24,0.00,,,0.00,520,LWC V2.00 B727,2013-03-17 22:52:00,
2013-03-17 17:00:00,55.2,17.0,29.90,SW,225,8.0,22.0,22,0.00,,,0.00,545,LWC V2.00 B727,2013-03-17 23:00:00,
2013-03-17 17:10:00,55.2,17.0,29.90,SW,225,8.0,22.0,22,0.00,,,0.00,545,LWC V2.00 B727,2013-03-17 23:10:00,
2013-03-17 17:20:00,55.2,17.0,29.90,SW,225,8.0,22.0,22,0.00,,,0.00,545,LWC V2.00 B727,2013-03-17 23:20:00,
2013-03-17 17:30:00,54.9,14.6,29.91,SW,225,7.0,25.0,20,0.00,,,0.00,554,LWC V2.00 B727,2013-03-17 23:30:00,
2013-03-17 17:40:00,54.9,14.6,29.91,SW,225,7.0,25.0,20,0.00,,,0.00,554,LWC V2.00 B727,2013-03-17 23:40:00,
2013-03-17 17:50:00,54.9,14.6,29.91,SW,225,7.0,25.0,20,0.00,,,0.00,554,LWC V2.00 B727,2013-03-17 23:50:00,
2013-03-17 18:00:00,52.3,13.6,29.91,SW,225,8.0,22.0,21,0.00,,,0.00,349,LWC V2.00 B727,2013-03-18 00:00:00,
2013-03-17 18:10:00,52.3,13.6,29.91,SW,225,8.0,22.0,21,0.00,,,0.00,349,LWC V2.00 B727,2013-03-18 00:10:00,
2013-03-17 18:20:00,52.3,13.6,29.91,SW,225,8.0,22.0,21,0.00,,,0.00,349,LWC V2.00 B727,2013-03-18 00:20:00,
2013-03-17 18:30:00,51.2,13.7,29.92,SW,225,8.0,21.0,22,0.00,,,0.00,151,LWC V2.00 B727,2013-03-18 00:30:00,
2013-03-17 18:40:00,51.2,13.7,29.92,SW,225,8.0,21.0,22,0.00,,,0.00,151,LWC V2.00 B727,2013-03-18 00:40:00,
2013-03-17 18:50:00,51.2,13.7,29.92,SW,225,8.0,21.0,22,0.00,,,0.00,151,LWC V2.00 B727,2013-03-18 00:50:00,
2013-03-17 19:00:00,49.0,13.8,29.93,SW,225,6.0,20.0,24,0.00,,,0.00,38,LWC V2.00 B727,2013-03-18 01:00:00,
2013-03-17 19:10:00,49.0,13.8,29.93,SW,225,6.0,20.0,24,0.00,,,0.00,38,LWC V2.00 B727,2013-03-18 01:10:00,
2013-03-17 19:20:00,49.0,13.8,29.93,SW,225,6.0,20.0,24,0.00,,,0.00,38,LWC V2.00 B727,2013-03-18 01:20:00,
2013-03-17 19:30:00,47.3,12.4,29.94,SW,225,6.0,18.0,24,0.00,,,0.00,3,LWC V2.00 B727,2013-03-18 01:30:00,
2013-03-17 19:40:00,47.3,12.4,29.94,SW,225,6.0,18.0,24,0.00,,,0.00,3,LWC V2.00 B727,2013-03-18 01:40:00,
2013-03-17 19:50:00,47.3,12.4,29.94,SW,225,6.0,18.0,24,0.00,,,0.00,3,LWC V2.00 B727,2013-03-18 01:50:00,
2013-03-17 20:00:00,46.0,13.1,29.96,SW,225,4.0,14.0,26,0.00,,,0.00,0,LWC V2.00 B727,2013-03-18 02:00:00,
2013-03-17 20:10:00,46.0,13.1,29.96,SW,225,4.0,14.0,26,0.00,,,0.00,0,LWC V2.00 B727,2013-03-18 02:10:00,
2013-03-17 20:20:00,46.0,13.1,29.96,SW,225,4.0,14.0,26,0.00,,,0.00,0,LWC V2.00 B727,2013-03-18 02:20:00,
2013-03-17 20:30:00,45.0,13.1,29.98,SW,225,4.0,14.0,27,0.00,,,0.00,0,LWC V2.00 B727,2013-03-18 02:30:00,
2013-03-17 20:40:00,45.0,13.1,29.98,SW,225,4.0,14.0,27,0.00,,,0.00,0,LWC V2.00 B727,2013-03-18 02:40:00,
2013-03-17 20:50:00,45.0,13.1,29.98,SW,225,4.0,14.0,27,0.00,,,0.00,0,LWC V2.00 B727,2013-03-18 02:50:00,
2013-03-17 21:00:00,44.4,12.5,30.00,SW,225,5.0,15.0,27,0.00,,,0.00,0,LWC V2.00 B727,2013-03-18 03:00:00,
2013-03-17 21:10:00,44.4,12.5,30.00,SW,225,5.0,15.0,27,0.00,,,0.00,0,LWC V2.00 B727,2013-03-18 03:10:00,
2013-03-17 21:20:00,44.4,12.5,30.00,SW,225,5.0,15.0,27,0.00,,,0.00,0,LWC V2.00 B727,2013-03-18 03:20:00,
2013-03-17 21:35:00,43.0,12.9,30.01,WSW,239,3.0,3.0,29,0.00,,,0.00,0,LWC V2.00 B727,2013-03-18 03:35:00,
2013-03-17 21:40:00,42.8,12.8,30.01,WSW,238,3.0,3.0,29,0.00,,,0.00,0,LWC V2.00 B727,2013-03-18 03:40:00,
2013-03-17 21:45:00,42.6,13.4,30.02,NW,318,1.0,3.0,30,0.00,,,0.00,0,LWC V2.00 B727,2013-03-18 03:45:00,
2013-03-17 21:50:00,42.2,13.0,30.02,WSW,249,1.0,4.0,30,0.00,,,0.00,0,LWC V2.00 B727,2013-03-18 03:50:00,
2013-03-17 21:55:00,41.9,13.5,30.02,WSW,249,1.0,3.0,31,0.00,,,0.00,0,LWC V2.00 B727,2013-03-18 03:55:00,
2013-03-17 22:00:00,41.6,13.2,30.02,WSW,248,2.0,4.0,31,0.00,,,0.00,0,LWC V2.00 B727,2013-03-18 04:00:00,
2013-03-17 22:05:00,41.3,13.0,30.02,WSW,248,1.0,3.0,31,0.00,,,0.00,0,LWC V2.00 B727,2013-03-18 04:05:00,
2013-03-17 22:10:00,41.1,13.5,30.02,WSW,248,1.0,3.0,32,0.00,,,0.00,0,LWC V2.00 B727,2013-03-18 04:10:00,
2013-03-17 22:11:00,41.0,13.4,30.02,WSW,248,2.0,3.0,32,0.00,,,0.00,0,LWC V2.00 B727,2013-03-18 04:11:00,
2013-03-17 22:16:00,40.7,12.4,30.02,WSW,248,1.0,2.0,31,0.00,,,0.00,0,LWC V2.00 B727,2013-03-18 04:16:00,
2013-03-17 22:21:00,40.4,12.9,30.02,WSW,249,2.0,5.0,32,0.00,,,0.00,0,LWC V2.00 B727,2013-03-18 04:21:00,
2013-03-17 22:26:00,40.2,12.7,30.02,WSW,248,2.0,4.0,32,0.00,,,0.00,0,LWC V2.00 B727,2013-03-18 04:26:00,
2013-03-17 22:31:00,40.0,12.6,30.03,WSW,242,2.0,6.0,32,0.00,,,0.00,0,LWC V2.00 B727,2013-03-18 04:31:00,
2013-03-17 22:36:00,39.8,13.1,30.03,SW,232,1.0,3.0,33,0.00,,,0.00,0,LWC V2.00 B727,2013-03-18 04:36:00,
2013-03-17 22:41:00,39.6,12.9,30.03,SW,232,1.0,1.0,33,0.00,,,0.00,0,LWC V2.00 B727,2013-03-18 04:41:00,
2013-03-17 22:46:00,39.3,12.6,30.04,SW,232,0.0,0.0,33,0.00,,,0.00,0,LWC V2.00 B727,2013-03-18 04:46:00,
2013-03-17 22:51:00,38.8,12.2,30.04,SW,232,1.0,2.0,33,0.00,,,0.00,0,LWC V2.00 B727,2013-03-18 04:51:00,
2013-03-17 22:56:00,38.1,12.2,30.04,SW,231,1.0,2.0,34,0.00,,,0.00,0,LWC V2.00 B727,2013-03-18 04:56:00,
2013-03-17 23:01:00,37.4,12.3,30.05,SW,230,2.0,3.0,35,0.00,,,0.00,0,LWC V2.00 B727,2013-03-18 05:01:00,
2013-03-17 23:06:00,37.0,12.6,30.05,SW,230,3.0,3.0,36,0.00,,,0.00,0,LWC V2.00 B727,2013-03-18 05:06:00,
2013-03-17 23:11:00,36.6,12.2,30.05,SW,230,0.0,1.0,36,0.00,,,0.00,0,LWC V2.00 B727,2013-03-18 05:11:00,
2013-03-17 23:16:00,36.3,13.2,30.06,SW,230,0.0,1.0,38,0.00,,,0.00,0,LWC V2.00 B727,2013-03-18 05:16:00,
2013-03-17 23:21:00,36.3,13.2,30.07,SW,230,0.0,4.0,38,0.00,,,0.00,0,LWC V2.00 B727,2013-03-18 05:21:00,
2013-03-17 23:26:00,36.4,13.8,30.07,WSW,258,1.0,3.0,39,0.00,,,0.00,0,LWC V2.00 B727,2013-03-18 05:26:00,
2013-03-17 23:31:00,36.4,13.8,30.08,WSW,258,3.0,3.0,39,0.00,,,0.00,0,LWC V2.00 B727,2013-03-18 05:31:00,
2013-03-17 23:36:00,36.5,13.9,30.08,WSW,254,1.0,2.0,39,0.00,,,0.00,0,LWC V2.00 B727,2013-03-18 05:36:00,
2013-03-17 23:41:00,36.6,14.0,30.08,WSW,253,3.0,4.0,39,0.00,,,0.00,0,LWC V2.00 B727,2013-03-18 05:41:00,
2013-03-17 23:46:00,36.5,14.5,30.09,WSW,242,2.0,3.0,40,0.00,,,0.00,0,LWC V2.00 B727,2013-03-18 05:46:00,
2013-03-17 23:51:00,36.3,14.9,30.09,SSW,192,2.0,3.0,41,0.00,,,0.00,0,LWC V2.00 B727,2013-03-18 05:51:00,
2013-03-17 23:56:00,36.3,14.9,30.09,SSW,194,2.0,5.0,41,0.00,,,0.00,0,LWC V2.00 B727,2013-03-18 05:56:00,